FW5674 Weather Reports


Display with metric or nautical units.
time (UTC)temp
F
wind
direction
speed
MPH
gust
MPH
rain 1hr
in
rain 24hr
in
rain mn
in
humidity
%
barometer
mb
20260504044540 58 0 0.0 4.0 0.00 0.00 0.00 63 1007.6
20260504043040 59 360 0.0 3.0 0.00 0.00 0.00 62 1007.7
20260504041542 59 0 0.0 5.0 0.00 0.00 0.00 62 1007.6
20260504040041 60 360 1.0 3.0 0.00 0.00 0.00 61 1007.8
20260504034540 60 360 0.0 4.0 0.00 0.00 0.00 60 1007.9
20260504033035 60 360 0.0 8.0 0.00 0.00 0.00 59 1008.0
20260504031534 61 0 0.0 3.0 0.00 0.00 0.00 58 1008.2
20260504030043 61 0 0.0 5.0 0.00 0.00 0.00 57 1008.3
20260504024539 62 0 1.0 5.0 0.00 0.00 0.00 56 1008.3
20260504023036 62 360 1.0 5.0 0.00 0.00 0.00 55 1008.2
20260504021536 63 360 1.0 5.0 0.00 0.00 0.00 54 1008.1
20260504020037 63 0 0.0 4.0 0.00 0.00 0.00 53 1007.9
20260504014539 64 360 1.0 6.0 0.00 0.00 0.00 52 1007.8
20260504013042 64 360 1.0 8.0 0.00 0.00 0.00 50 1007.5
20260504011542 65 187 2.0 10.0 0.00 0.00 0.00 49 1007.4
20260504010037 66 360 2.0 5.0 0.00 0.00 0.00 48 1007.5
20260504004536 66 360 2.0 11.0 0.00 0.00 0.00 47 1007.6
20260504003038 67 360 2.0 12.0 0.00 0.00 0.00 46 1007.5
20260504001542 67 360 2.0 10.0 0.00 0.00 0.00 45 1007.5
20260504000041 67 360 2.0 12.0 0.00 0.00 0.00 44 1007.3
20260503234545 67 182 1.0 8.0 0.00 0.00 0.00 44 1007.5
20260503233037 68 360 1.0 10.0 0.00 0.00 0.00 43 1007.5
20260503231542 69 360 3.0 12.0 0.00 0.00 0.00 41 1007.5
20260503230043 68 360 3.0 13.0 0.00 0.00 0.00 41 1007.8
20260503224540 68 197 3.0 13.0 0.00 0.00 0.00 41 1008.0
20260503223039 68 360 4.0 16.0 0.00 0.00 0.00 41 1008.3
20260503221536 68 360 3.0 15.0 0.00 0.00 0.00 41 1008.4
20260503220045 67 360 5.0 14.0 0.00 0.00 0.00 40 1008.5
20260503214540 67 360 3.0 21.0 0.00 0.00 0.00 40 1008.7
20260503213042 68 360 5.0 19.0 0.00 0.00 0.00 38 1008.8
20260503211538 68 360 3.0 18.0 0.00 0.00 0.00 37 1009.2
20260503210038 68 175 5.0 20.0 0.00 0.00 0.00 37 1009.3
20260503204534 68 360 4.0 14.0 0.00 0.00 0.00 38 1009.7
20260503203041 67 360 6.0 19.0 0.00 0.00 0.00 39 1009.9
20260503201541 66 360 4.0 16.0 0.00 0.00 0.00 42 1010.2
20260503200043 66 360 7.0 15.0 0.00 0.00 0.00 43 1010.5
20260503194538 65 360 5.0 12.0 0.00 0.00 0.00 46 1010.5
20260503193036 63 360 4.0 13.0 0.00 0.00 0.00 48 1010.9
20260503191540 61 360 6.0 15.0 0.00 0.00 0.00 48 1011.2
20260503190041 61 360 4.0 19.0 0.00 0.00 0.00 51 1011.3
20260503184553 59 360 5.0 12.0 0.00 0.00 0.00 53 1011.7
20260503183055 57 360 4.0 14.0 0.00 0.00 0.00 56 1012.0
20260503181541 57 182 4.0 16.0 0.00 0.00 0.00 57 1012.4
20260503180040 56 360 3.0 20.0 0.00 0.00 0.00 58 1013.4
20260503174539 56 360 6.0 14.0 0.00 0.00 0.00 60 1013.7
20260503173038 55 360 4.0 11.0 0.00 0.00 0.00 63 1014.3
20260503171535 54 360 3.0 14.0 0.00 0.00 0.00 66 1014.6
20260503081554 46 0 0.0 3.0 0.00 0.00 0.00 57 1016.5
20260503071540 47 360 1.0 8.0 0.00 0.00 0.00 55 1016.8